FIREFLY ALPHA R/B

Last updated on Sun Aug 04 2024 00:02:04 GMT+0000 (Coordinated Universal Time)

1 60210U 24125H 24216.55714297 .00013292 00000+0 48186-3 0 9994 2 60210 97.3116 70.0580 0051665 146.0574 214.3989 15.27189522 4628

Satellite not in orbit